Wind_Speed
9 11 12 12 13 14 15 17 18 19 20 19 17 13 5 4 19 29 16 19 20 21 21 19 12 16 3 3 2 1 2 5 7 7 7 7 7 5 6 5 4 2 2 4 20
9 10 11 11 12 14 15 16 18 19 19 16 13 12 8 2 5 20 19 21 19 21 19 13 7 11 3 3 4 1 3 5 2 4 4 8 4 7 5 7 4 4 5 1 27
10 10 11 12 12 13 15 16 18 19 16 14 13 12 9 1 4 6 26 22 20 20 16 8 7 1 3 4 6 5 3 7 5 8 11 8 9 6 7 6 7 4 6 3 11
10 12 12 11 11 13 14 15 17 17 14 12 14 10 8 2 3 11 22 21 18 16 20 12 7 5 4 3 4 4 3 4 7 9 8 9 7 8 10 10 9 6 8 5 9
11 12 12 10 11 12 14 15 16 13 11 9 14 10 5 6 3 16 20 17 14 16 16 6 8 4 3 4 7 2 6 11 9 11 9 12 12 11 15 12 16 12 7 9 11
12 11 11 10 11 12 14 16 14 11 9 5 8 11 5 6 8 16 20 18 15 13 9 7 3 2 1 2 1 4 6 10 8 9 7 7 9 4 4 7 11 8 8 8 9
11 10 11 10 11 12 14 15 10 9 5 5 7 3 7 3 10 18 21 19 11 9 3 4 3 5 2 3 0 5 5 7 1 5 6 11 8 6 6 8 9 7 8 11 10
10 10 10 10 12 13 16 11 7 6 4 4 6 2 2 6 8 21 26 18 15 9 6 6 4 1 2 5 6 5 3 5 8 8 6 4 8 12 9 13 15 10 6 7 10
9 9 9 10 12 14 14 7 5 4 3 6 3 3 3 8 12 19 19 15 14 15 8 3 3 3 5 4 4 6 5 6 8 8 5 4 16 7 21 17 17 15 13 8 10
9 7 7 9 12 16 11 3 3 6 3 3 6 3 6 6 16 17 25 10 4 8 6 7 5 3 4 6 2 9 7 6 13 7 12 14 23 15 15 20 20 18 14 11 9
8 7 5 8 11 16 7 3 5 6 13 4 1 1 5 17 4 18 23 7 6 7 6 5 5 3 5 2 4 7 6 12 14 14 6 11 23 21 25 18 17 17 16 16 13
6 4 4 6 9 15 9 8 2 1 4 3 2 3 4 8 4 12 21 7 6 5 7 6 1 1 5 3 6 7 7 11 9 6 12 16 24 23 18 9 8 10 10 11 14
5 3 2 5 5 8 17 7 2 2 4 4 3 3 5 6 4 7 9 5 5 6 4 2 4 6 5 8 5 5 9 7 15 17 12 8 8 12 9 4 5 5 4 6 10
3 2 2 4 2 3 4 4 1 1 4 6 4 4 4 4 3 5 7 2 6 5 5 5 3 4 5 4 1 7 7 9 17 12 9 5 7 12 4 8 3 6 7 9 11
4 2 1 4 4 3 2 1 2 0 4 2 6 6 8 5 5 5 8 4 2 4 1 5 6 8 4 3 2 9 12 12 16 14 8 3 3 8 4 3 6 7 8 8 11
6 4 1 1 4 5 2 1 1 5 3 3 3 7 4 6 7 8 7 7 1 3 3 6 5 3 4 4 6 7 13 13 3 1 2 3 3 9 4 3 5 9 9 8 13
8 5 2 1 3 3 3 2 4 5 3 5 2 4 1 5 6 7 5 7 5 7 6 8 5 4 2 6 4 10 6 5 6 4 5 2 4 10 3 1 5 12 16 12 13
9 6 3 3 3 2 3 5 4 1 5 1 2 2 3 6 3 7 3 4 5 4 2 5 9 2 2 3 4 4 3 1 6 3 12 11 6 5 3 3 6 10 12 14 14
11 7 4 2 1 2 5 4 7 7 4 5 2 6 5 3 1 4 4 1 2 4 3 5 6 5 8 4 4 5 1 3 5 3 4 3 7 5 5 14 21 22 20 22 21
12 5 2 1 2 0 4 4 3 4 4 2 4 3 2 4 2 4 2 3 2 2 2 1 8 4 6 5 1 3 4 4 2 5 6 5 5 6 8 19 20 20 20 21 18
8 3 1 1 1 4 3 6 4 4 3 3 5 4 4 1 1 2 4 3 1 1 2 1 3 7 6 2 2 5 4 2 3 4 4 6 5 4 9 22 21 19 20 23 21
6 1 2 3 3 2 3 5 4 4 2 2 4 3 5 4 2 2 4 4 3 2 1 1 3 5 7 12 5 4 2 1 2 4 4 5 7 5 17 17 22 21 16 19 19
4 2 3 2 3 2 3 1 4 4 3 4 3 2 2 4 1 4 3 2 2 1 3 2 3 6 9 5 4 2 3 5 5 6 8 4 6 18 21 21 22 18 19 19 18
4 2 3 3 1 6 5 3 3 2 3 3 4 3 3 1 3 3 2 2 3 1 4 3 2 7 6 9 4 10 14 17 5 4 5 10 18 26 24 27 25 19 20 18 15
1 4 3 3 4 4 4 6 5 5 2 4 1 5 5 3 2 3 2 3 1 4 3 2 4 4 11 19 17 17 18 18 10 11 5 12 21 22 23 22 14 16 16 17 17
6 4 1 2 4 7 3 7 10 3 7 5 5 8 7 6 7 7 5 3 4 1 2 2 4 5 6 4 0 14 14 13 14 13 10 12 20 22 24 19 13 17 16 16 15
2 3 4 5 4 5 5 6 9 9 5 3 7 5 7 12 5 3 4 2 3 5 1 2 1 4 6 10 13 4 4 3 5 11 5 9 19 20 23 21 13 18 15 15 14
Wind_Direction
18 15 5 359 355 350 353 354 352 352 348 350 352 357 2 358 42 40 40 353 341 340 345 346 7 2 16 342 316 112 239 241 239 229 258 319 358 327 301 270 321 295 210 303 161
5 5 354 356 353 348 353 355 350 349 348 355 3 5 355 32 33 38 3 355 352 355 353 351 345 351 19 349 341 186 247 243 259 323 322 326 320 328 312 303 304 319 337 249 159
352 347 354 351 350 348 351 354 351 347 352 359 2 360 8 91 63 342 354 356 356 360 358 356 337 14 40 7 6 326 237 334 327 348 350 307 314 334 286 267 238 247 292 223 186
347 345 345 347 350 353 352 354 349 349 356 7 11 9 27 79 65 333 350 353 354 5 20 21 8 31 48 7 350 341 321 30 309 331 320 301 297 284 250 258 289 317 305 179 223
342 342 341 345 351 354 352 352 349 350 360 18 19 24 26 37 42 349 356 5 9 18 25 17 35 13 34 338 336 225 339 318 306 295 285 279 267 262 268 288 285 293 284 218 217
340 346 348 351 351 354 351 350 351 351 356 6 15 34 68 66 338 355 357 1 10 8 9 37 29 273 311 311 350 294 288 285 288 309 295 300 296 267 341 288 278 287 271 250 225
338 340 343 347 350 352 347 347 352 353 10 21 10 26 59 93 5 0 354 354 358 346 330 24 12 48 302 320 287 275 318 318 167 318 297 343 304 220 324 7 335 328 324 308 254
333 333 342 344 352 349 342 343 346 354 359 3 22 42 87 344 342 2 359 0 2 31 325 337 359 9 23 296 357 342 46 7 316 322 298 24 276 307 326 327 307 295 277 284 302
328 329 336 350 353 346 344 343 8 339 7 20 22 46 348 347 350 349 350 336 336 359 51 48 53 55 4 17 13 16 313 304 315 318 281 24 296 288 309 296 293 292 286 252 271
323 328 340 354 355 348 351 84 76 41 357 1 28 37 17 312 322 337 352 1 3 347 13 33 39 48 25 37 336 305 308 292 296 281 303 300 286 293 286 279 278 282 277 268 234
321 327 347 358 2 359 33 101 23 353 37 75 342 46 314 326 327 350 354 354 20 47 13 340 50 8 327 314 265 264 270 288 284 280 298 276 289 297 283 286 278 278 278 279 260
311 317 342 3 9 16 42 71 108 170 78 21 6 340 309 338 341 330 2 43 37 17 343 13 359 13 328 308 304 297 285 285 282 285 313 301 299 284 294 275 269 274 289 292 294
296 292 342 351 17 32 70 80 92 142 92 1 12 343 320 355 331 302 12 357 54 17 9 186 270 354 14 322 325 294 281 277 292 311 285 305 296 284 284 289 341 10 355 348 353
260 259 338 335 101 63 51 73 116 141 77 318 349 352 339 337 312 309 354 41 6 339 338 247 273 351 325 262 187 299 254 288 295 317 307 57 304 294 301 317 353 350 351 346 348
208 225 39 60 112 70 91 56 133 265 44 276 311 310 332 59 319 334 352 23 353 299 39 268 317 344 321 265 349 260 306 286 289 292 303 336 245 269 300 297 342 336 334 333 341
192 188 194 70 86 112 79 116 130 46 267 353 333 353 14 11 350 320 4 19 270 353 282 264 296 228 240 294 279 301 324 312 17 275 310 217 180 283 309 8 327 333 331 335 335
190 176 203 171 131 114 120 80 30 117 338 297 341 10 75 344 344 13 16 18 35 15 356 327 297 302 349 324 330 10 359 339 353 1 234 160 286 254 264 348 355 338 334 334 331
182 169 138 126 122 119 129 52 80 233 231 318 3 17 60 1 13 343 34 30 28 69 14 16 331 8 49 205 275 316 128 253 307 300 296 279 230 260 149 20 319 329 327 330 326
172 161 148 91 334 167 80 54 200 201 180 160 60 65 317 351 4 9 15 349 73 46 105 354 270 311 297 243 127 290 331 222 265 254 275 262 287 296 29 355 349 343 332 330 328
158 162 136 129 300 149 74 227 170 193 148 108 144 136 206 286 7 44 347 273 94 85 139 297 290 249 290 322 111 152 315 340 347 307 295 264 268 254 360 345 339 327 321 324 320
149 89 134 136 178 49 165 211 209 227 145 123 176 132 217 207 193 272 242 283 47 42 30 87 206 295 343 224 20 340 349 12 277 246 285 313 272 181 349 340 332 325 320 322 317
145 98 71 143 55 57 146 181 195 152 139 110 114 118 168 156 200 251 246 213 29 125 102 207 230 279 269 287 261 225 196 10 253 316 269 261 275 205 332 335 333 328 326 320 315
124 126 47 104 160 261 300 172 185 142 183 167 144 164 161 161 358 221 257 286 315 153 132 220 309 311 339 5 26 10 292 278 311 267 246 264 280 311 322 330 332 329 332 326 320
121 117 344 61 174 140 144 205 192 202 155 156 135 131 98 54 217 260 257 293 359 275 304 183 232 197 221 260 334 298 293 297 281 268 282 274 298 315 333 331 335 340 333 329 327
112 207 189 188 242 175 147 144 140 174 213 170 129 199 160 177 293 237 254 298 45 360 72 83 246 216 249 264 273 268 275 286 292 270 272 296 304 319 326 325 328 333 333 337 339
143 149 30 121 140 122 195 209 170 191 160 217 204 183 171 186 190 202 160 209 227 27 125 78 274 308 289 287 24 288 273 260 266 287 277 300 315 330 320 327 351 348 347 348 346
166 109 103 154 162 127 205 196 191 145 226 201 181 132 200 240 191 195 187 174 185 155 226 252 282 350 272 319 313 347 254 252 276 271 293 334 314 320 325 332 8 351 357 354 357
Height
843 841 840 838 837 835 831 827 825 823 820 816 814 812 810 809 808 803 803 811 805 799 794 789 786 785 784 785 784 783 793 792 781 779 770 760 766 757 753 754 747 745 745 741 741
844 842 840 838 836 835 831 827 826 823 820 816 814 812 810 810 809 808 813 809 805 800 794 791 789 787 789 788 788 789 791 783 774 773 775 770 769 765 761 758 753 748 745 744 742
844 842 839 837 835 834 831 828 826 823 820 817 814 812 810 809 811 814 811 808 805 802 797 794 791 790 790 791 795 795 793 787 777 780 780 774 770 767 763 761 752 750 748 748 746
843 841 839 837 835 833 831 828 826 823 820 817 814 812 811 810 821 817 813 809 806 803 799 796 794 798 799 800 800 800 790 793 788 783 781 777 772 768 763 757 750 748 747 746 748
842 840 838 836 834 832 830 828 826 824 821 819 816 813 813 819 823 818 814 810 807 804 803 802 804 806 807 808 804 799 798 792 788 785 781 775 772 769 759 756 750 748 746 744 744
841 839 838 835 833 831 829 827 825 824 822 820 818 817 815 827 821 818 814 810 808 806 806 806 808 807 809 807 808 803 801 797 789 786 780 777 770 765 755 751 749 747 745 744 742
840 839 837 835 832 830 829 827 825 824 822 821 819 819 820 826 821 818 814 811 808 806 806 806 807 808 809 807 804 801 802 795 787 786 782 775 764 761 759 756 754 752 750 744 741
840 838 836 834 832 829 828 826 825 824 822 821 820 820 823 822 821 818 813 807 807 806 806 805 805 807 807 804 804 804 805 811 790 789 782 779 773 762 760 759 754 752 750 744 739
839 837 836 833 831 828 826 825 825 824 823 821 821 820 825 822 820 817 815 811 807 806 806 805 806 811 810 817 816 819 821 816 804 790 789 784 774 767 761 755 749 746 743 743 738
838 836 835 833 830 827 824 824 825 824 824 823 823 827 827 830 824 819 815 811 810 808 809 810 815 821 825 825 841 823 820 815 811 794 788 788 772 761 758 752 745 739 737 736 735
838 836 835 833 831 827 824 824 829 830 829 838 837 835 833 830 825 821 815 813 813 817 826 820 824 824 824 821 820 822 822 816 804 789 793 785 769 761 745 743 742 737 734 728 727
836 835 835 833 832 829 825 831 838 840 840 837 836 835 834 833 832 823 820 821 824 831 829 828 823 817 820 817 820 820 818 809 798 787 788 775 766 753 742 742 738 736 733 730 723
836 835 834 834 832 833 830 835 838 838 842 838 838 839 838 836 836 831 826 827 831 833 835 835 819 819 820 822 819 815 812 806 798 786 783 780 768 750 738 737 735 735 734 732 728
835 836 834 833 836 835 837 836 837 838 864 846 840 840 839 837 836 832 829 831 832 835 835 833 819 822 825 823 816 815 801 800 797 798 795 782 783 748 739 736 735 737 735 733 729
834 836 835 833 835 837 841 839 837 839 868 846 846 840 839 841 843 834 832 830 835 837 837 824 825 826 825 815 814 813 803 802 794 796 794 784 786 755 739 732 738 738 735 733 730
833 835 835 836 835 837 839 840 841 858 858 857 851 852 845 847 845 843 838 834 835 838 836 833 827 824 820 813 814 809 804 794 797 788 814 779 785 744 740 740 740 735 735 732 729
833 833 836 836 837 837 837 841 861 856 865 864 859 857 856 858 850 853 850 854 857 870 864 844 827 823 818 822 814 815 826 854 835 837 807 772 776 746 738 738 740 739 731 730 728
833 834 835 837 837 836 838 853 859 895 893 862 862 859 860 864 859 859 852 861 857 866 879 875 856 826 826 826 823 823 836 826 811 828 785 760 768 735 737 740 742 737 733 729 727
832 833 834 836 839 837 842 877 863 879 870 865 866 886 892 868 867 862 866 862 855 859 884 879 859 830 827 822 823 829 842 810 810 806 794 771 754 735 739 736 733 731 729 725 720
828 833 835 834 838 837 854 852 866 856 859 862 870 893 891 899 872 874 874 860 856 858 860 865 870 835 829 820 816 823 817 826 831 812 805 766 754 742 746 738 738 738 732 723 719
828 835 834 834 838 844 864 870 865 853 852 859 881 893 895 889 889 895 884 862 856 858 859 862 871 846 833 822 825 840 840 823 821 810 795 779 753 747 742 740 738 739 731 723 717
827 841 833 835 852 872 869 865 849 851 850 856 862 870 881 890 894 887 875 863 858 858 872 863 875 873 840 822 825 824 831 827 824 809 804 795 760 739 735 736 737 735 729 727 720
828 836 833 834 854 873 866 849 848 850 852 855 856 858 870 884 888 890 869 857 858 859 869 868 893 883 851 829 823 824 817 824 827 823 805 797 765 730 736 739 737 734 732 726 718
822 837 838 836 844 846 863 854 853 846 850 851 854 857 867 880 875 884 866 859 860 859 855 857 870 888 873 834 839 835 823 820 829 818 797 777 764 742 744 743 735 733 732 726 719
814 820 824 838 840 838 836 843 847 853 848 850 853 853 861 887 882 884 871 864 860 859 860 864 889 885 863 849 845 840 834 823 823 808 794 775 768 759 757 750 744 744 736 727 719
809 814 825 833 829 831 835 840 838 850 847 849 852 847 857 869 856 874 872 870 862 862 862 866 891 863 857 838 835 830 817 811 806 795 788 778 768 765 758 753 750 746 738 732 724
800 801 803 823 828 827 829 828 829 834 842 838 843 848 854 849 852 851 854 857 859 865 861 865 880 882 878 844 835 835 802 796 796 791 791 784 783 769 759 753 753 749 744 739 731